Regional Weather Roundup
Issued by NWS

Home | Current Version | Previous Version | Graphics & Text | Print | Product List | Glossary On
Versions: 1 2 3 4 5 6 7 8 9 10 11 12 13 14 15 16 17 18 19 20 21 22 23 24 25 26 27 28 29 30 31 32 33 34 35 36 37 38 39 40 41 42 43 44 45 46 47 48 49 50
000
ASUS43 KTOP 212308
RWRKS

WEATHER ROUNDUP FOR KANSAS
NATIONAL WEATHER SERVICE GOODLAND KS
600 PM CDT TUE OCT 21 2014

NOTE:  "FAIR" INDICATES FEW OR NO CLOUDS BELOW 12,000 FEET WITH NO
SIGNIFICANT WEATHER AND/OR OBSTRUCTIONS TO VISIBILITY.

KSZ001>006-013>018-027>032-041>047-220000-
NORTHWEST KANSAS

CITY           SKY/WX    TMP DP  RH WIND       PRES   REMARKS
GOODLAND       SUNNY     77  44  30 S20G29    29.92F
HAYS           CLEAR     79  55  44 S14       29.96S
HILL CITY      CLEAR     78  55  44 S16       29.95F
RUSSELL        CLEAR     77  59  53 SE12      29.95F
$$

KSZ061>065-074>080-084>089-220000-
SOUTHWEST KANSAS

CITY           SKY/WX    TMP DP  RH WIND       PRES   REMARKS
DODGE CITY     PTCLDY    78  50  37 S17       29.99F
ELKHART          N/A     75  47  37 S9          N/A
GARDEN CITY    PTCLDY    77  49  37 S17       29.97F
GREAT BEND     CLEAR     79  55  44 S12       29.97S
LIBERAL        MOSUNNY   77  48  36 S17       30.01S
PRATT          CLEAR     77  54  44 S13       30.00F
$$

KSZ066>073-081>083-090>101-220000-
SOUTHEAST KANSAS

CITY           SKY/WX    TMP DP  RH WIND       PRES   REMARKS
CHANUTE        CLEAR     72  57  59 SE5       30.05S
COFFEYVILLE    CLEAR     75  56  51 E6        30.03F
HUTCHINSON     CLEAR     78  58  49 S13       29.99F
MEDICINE LODGE   N/A     80  56  43 S9G21     29.98S
NEWTON         CLEAR     75  55  50 SE8       30.03F
PARSONS        CLEAR     75  57  53 CALM      30.05F
WICHITA INTL   PTCLDY    79  58  48 S9        30.00F
WICHITA JABRA  CLEAR     77  59  53 S9        30.00F
WICHITA MCCONL CLEAR     78  60  53 SE8       30.01F
WINFIELD       CLEAR     77  61  57 SE7       30.02S
$$

KSZ007>012-019>026-033>040-048>060-102>105-220000-
NORTHEAST KANSAS

CITY           SKY/WX    TMP DP  RH WIND       PRES   REMARKS
CONCORDIA      CLEAR     74  53  48 SE12      29.99S
EMPORIA        CLEAR     72  54  53 SE7       30.03F
LAWRENCE       HAZE      69  45  41 SE5       30.05S VSB 1
MANHATTAN      CLEAR     75  51  43 SE10      30.00F
MARYSVILLE     CLEAR     72  43  35 SE7       30.01S
OLATHE IND     CLEAR     71  46  40 SE6       30.07S
OLATHE EXE     CLEAR     70  45  40 E7        30.06F
SALINA         CLEAR     77  57  50 SE12      29.98F
TOPEKA BILLARD CLEAR     72  44  36 E8        30.04F
TOPEKA FORBES  CLEAR     71  45  39 SE8       30.04F
$$



USA.gov is the U.S. government's official web portal to all federal, state and local government web resources and services.